This is the latest recevied weather packets stored in our database for station/object K6CQU-13. If no packets are shown the sender has not sent any weather packets the latest 10 day(s).
| Time | Temp. | Humidity | Pressure | Rain* | Wind** | Luminosity | Snow |
|---|---|---|---|---|---|---|---|
| 1777395917 | 17.22° C | 62% | 1020.4 hPa | 0 mm | - | 652 W/m² | - |
| 1777395617 | 17.78° C | 60% | 1020.4 hPa | 0 mm | - | 639 W/m² | - |
| 1777395317 | 17.78° C | 61% | 1020.4 hPa | 0 mm | - | 624 W/m² | - |
| 1777395017 | 17.78° C | 62% | 1020.4 hPa | 0 mm | - | 609 W/m² | - |
| 1777394717 | 17.22° C | 63% | 1020.4 hPa | 0 mm | - | 596 W/m² | - |
| 1777394417 | 17.22° C | 65% | 1020.4 hPa | 0 mm | - | 582 W/m² | - |
| 1777394117 | 17.22° C | 63% | 1020.4 hPa | 0 mm | - | 566 W/m² | - |
| 1777393817 | 17.22° C | 62% | 1020.5 hPa | 0 mm | - | 550 W/m² | - |
| 1777393517 | 17.22° C | 61% | 1020.4 hPa | 0 mm | - | 535 W/m² | - |
| 1777393217 | 17.22° C | 61% | 1020.4 hPa | 0 mm | - | 521 W/m² | - |
| 1777392917 | 17.22° C | 62% | 1020.3 hPa | 0 mm | - | 506 W/m² | - |
| 1777392617 | 16.67° C | 63% | 1020.4 hPa | 0 mm | - | 490 W/m² | - |
| 1777392317 | 16.67° C | 63% | 1020.4 hPa | 0 mm | - | 475 W/m² | - |
| 1777392017 | 16.67° C | 64% | 1020.3 hPa | 0 mm | - | 457 W/m² | - |
| 1777391717 | 16.67° C | 64% | 1020.3 hPa | 0 mm | - | 441 W/m² | - |
| 1777391417 | 16.11° C | 66% | 1020.3 hPa | 0 mm | - | 423 W/m² | - |
| 1777391117 | 16.11° C | 67% | 1020.3 hPa | 0 mm | - | 405 W/m² | - |
| 1777390817 | 15.56° C | 67% | 1020.3 hPa | 0 mm | - | 389 W/m² | - |
| 1777390517 | 15.56° C | 68% | 1020.3 hPa | 0 mm | - | 374 W/m² | - |
| 1777390217 | 15.56° C | 70% | 1020.2 hPa | 0 mm | - | 356 W/m² | - |
| 1777389917 | 15° C | 71% | 1020.2 hPa | 0 mm | - | 339 W/m² | - |
| 1777389617 | 15° C | 73% | 1020.2 hPa | 0 mm | - | 323 W/m² | - |
| 1777389317 | 14.44° C | 75% | 1020.1 hPa | 0 mm | - | 306 W/m² | - |
| 1777389017 | 14.44° C | 76% | 1020.1 hPa | 0 mm | - | 288 W/m² | - |
| 1777388717 | 13.89° C | 78% | 1020 hPa | 0 mm | - | 273 W/m² | - |
* Rain latest hour (hover to see other rain measurements)
** Current wind speed in m/s (hover to see current wind gust speed)